Flag Weather past 2 weeks in Milwaukee, Wisconsin, U.S.A.

Now
36 °F

Overcast.


Feels Like: 26 °F
Forecast: 31 / 38 °F
Wind: 16 mph from North

Location: Milwaukee / Timmerman

Current Time: Oct 31, 2014 at 6:55:27 PM

Latest Report: Oct 31, 2014 at 5:45 PM


Visibility: 10 mi

Pressure: 30.35 "Hg

Humidity: 48%

Dew point: 18 °F

Location of MilwaukeeLocation

Historic Weather in Milwaukee — Graph

°F

Milwaukee temperature yesterday

Maximum temperature yesterday: 50 °F (at 2:45 PM)
Minimum temperature yesterday: 32 °F (at 2:55 AM)
Average temperature yesterday: 39 °F

Past Weeks' High & Low Weather Summary

 TemperatureHumidityPressure
High73 °F (Oct 27, 1:45 PM)100% (Oct 18, 11:15 PM)30.38 "Hg (Oct 18, 11:15 PM)
Low30 °F (Oct 22, 6:45 AM)15% (Oct 25, 3:45 PM)29.52 "Hg (Oct 17, 3:35 AM)
Average46 °F73%29.97 "Hg
* Reported Oct 16 5:45 PM — Oct 31 5:45 PM, Milwaukee, Weather by CustomWeather, © 2014

Note: Actual official high and low records may vary slightly from our data, if they occured in-between our weather recording intervals... More about our weather records

Advertising

Milwaukee weather history for previous 24 hours

 ConditionsComfort  
Time TempWeatherWind HumidityBarometerVisibility
5:45 PM
Oct 31
36 °FOvercast.16 mph48%30.35 "Hg10 mi
4:45 PM37 °FOvercast.20 mph45%30.33 "Hg10 mi
3:45 PM37 °FOvercast.20 mph48%30.30 "Hg10 mi
2:45 PM37 °FMostly cloudy.20 mph48%30.28 "Hg10 mi
1:45 PM37 °FOvercast.25 mph48%30.26 "Hg10 mi
12:45 PM37 °FOvercast.25 mph52%30.24 "Hg10 mi
11:45 AM37 °FOvercast.29 mph52%30.23 "Hg10 mi
10:45 AM37 °FOvercast.31 mph56%30.21 "Hg10 mi
9:45 AM34 °FOvercast.22 mph65%30.18 "Hg10 mi
8:45 AM34 °FMostly cloudy.22 mph70%30.16 "Hg10 mi
7:45 AM34 °FOvercast.25 mph75%30.13 "Hg10 mi
6:45 AM34 °FPartly cloudy.17 mph81%30.11 "Hg10 mi
6:15 AM32 °FLight snow. Mostly cloudy.14 mph100%30.10 "Hg7 mi
5:55 AM32 °FLight snow. Mostly cloudy.12 mph93%30.10 "Hg7 mi
5:15 AM34 °FLight snow. Overcast.15 mph87%30.08 "Hg7 mi
4:55 AM34 °FLight rain. Overcast.16 mph87%30.07 "Hg10 mi
4:35 AM36 °FOvercast.17 mph81%30.06 "Hg10 mi
4:15 AM36 °FDrizzle. Mostly cloudy.16 mph87%30.06 "Hg10 mi
3:55 AM36 °FMostly cloudy.14 mph87%30.05 "Hg10 mi
3:35 AM36 °FDrizzle. Overcast.21 mph87%30.05 "Hg10 mi
3:15 AM37 °FLight rain. Overcast.16 mph75%30.05 "Hg10 mi
2:55 AM37 °FOvercast.17 mph81%30.04 "Hg10 mi
2:15 AM41 °FMostly cloudy.17 mph66%30.03 "Hg10 mi
1:55 AM41 °FMostly cloudy.16 mph66%30.03 "Hg10 mi
1:15 AM43 °FOvercast.15 mph66%30.03 "Hg10 mi
12:55 AM43 °FMostly cloudy.10 mph66%30.03 "Hg10 mi
12:35 AM43 °FOvercast.12 mph66%30.03 "Hg10 mi
12:15 AM43 °FMostly cloudy.16 mph66%30.03 "Hg10 mi
11:55 PM
Oct 30
43 °FDrizzle. Mostly cloudy.15 mph66%30.03 "Hg10 mi
11:35 PM45 °FLight rain. Overcast.14 mph66%30.02 "Hg10 mi
11:15 PM45 °FDrizzle. Mostly cloudy.8 mph66%30.03 "Hg10 mi
10:55 PM45 °FMostly cloudy.9 mph66%30.03 "Hg10 mi
10:15 PM45 °FMostly cloudy.10 mph66%30.03 "Hg10 mi
9:55 PM46 °FMostly cloudy.9 mph62%30.03 "Hg10 mi
9:35 PM45 °FMostly cloudy.8 mph66%30.03 "Hg10 mi
9:15 PM45 °FOvercast.7 mph66%30.03 "Hg10 mi
8:45 PM46 °FOvercast.No wind62%30.03 "Hg10 mi
7:45 PM46 °FOvercast.No wind62%30.04 "Hg10 mi
Weather by CustomWeather, © 2014

See weather overviewHow to use our weather pages